Regional Weather Roundup
Issued by NWS

Home | Current Version | Previous Version | Graphics & Text | Print | Product List | Glossary On
Versions: 1 2 3 4 5 6 7 8 9 10 11 12 13 14 15 16 17 18 19 20 21 22 23 24 25 26 27
000
ASUS45 KBOU 220807
RWRCO

WEATHER ROUNDUP FOR COLORADO
NATIONAL WEATHER SERVICE DENVER/BOULDER CO
100 AM MST SUN JAN 22 2017

NOTE: "FAIR" INDICATES FEW OR NO CLOUDS BELOW 12000 FEET WITH NO
SIGNIFICANT WEATHER AND/OR OBSTRUCTIONS TO VISIBILITY.

COZ001>005-013-030-031-220900-
...NORTHWEST COLORADO...

CITY           SKY/WX    TMP DP  RH WIND       PRES   REMARKS
CRAIG          LGT SNOW  27  21  78 SW17      29.90R WCI  14
HAYDEN         CLOUDY    25  19  80 W12G20    29.88R WCI  14
MEEKER         CLOUDY    26  24  92 MISG      29.90R
MOUNT WERNER   NOT AVBL
STEAMBOAT SPGS CLOUDY    24  22  93 SW6       29.86R WCI  17
WALDEN           N/A     18  14  86 S6        29.80R WCI   9
$$

COZ006>008-011-220900-
...WEST CENTRAL VALLEYS...

CITY           SKY/WX    TMP DP  RH WIND       PRES   REMARKS
GRAND JUNCTION FAIR      31  27  85 W5        29.94R WCI  26
MONTROSE       CLOUDY    30  26  85 CALM      29.96R
EAGLE          CLOUDY    25  23  92 E6        29.88R WCI  18
RIFLE          CLOUDY    33  27  78 W6        29.91R WCI  28
DELTA          CLOUDY    35  27  73 SW16      29.92R WCI  25
NUCLA          FAIR      30  23  74 S3        29.99R
$$

COZ017>023-064>068-220900-
...SOUTHWEST COLORADO...

CITY           SKY/WX    TMP DP  RH WIND       PRES   REMARKS
DURANGO        FAIR      21  15  78 SW8       29.88R WCI  11
CORTEZ         MOCLDY    20  19  96 NE8       29.97R WCI  10
PAGOSA SPRINGS CLOUDY    25  24  96 CALM      29.87R
TELLURIDE      LGT SNOW  20  17  88 W10G20    29.92R WCI   9
WOLF CREEK PAS CLOUDY    10   9  92 SW8       29.84R WCI  -1
$$

COZ009-010-012-014-032>034-037-058>063-220900-
...CENTRAL COLORADO...

CITY           SKY/WX    TMP DP  RH WIND       PRES   REMARKS
ASPEN          LGT SNOW  23  20  88 N5        29.85R FOG     WCI  17
BUENA VISTA    FAIR      16   9  75 NW7       29.76S WCI   6
COPPER MTN     NOT AVBL
BERTHOUD PASS  NOT AVBL
COTTONWOOD PAS FAIR      23  10  58 NW6       29.74S WCI  16
GUNNISON       FAIR      14  12  92 CALM      29.86R
KREMMLING      CLOUDY    21  18  86 CALM      29.85R
LEADVILLE      LGT SNOW  15  11  83 NW9       29.76R FOG     WCI   3
MONARCH PASS   CLOUDY    10   7  85 NW9G17    29.84R WCI  -2
SALIDA         FAIR      21  18  86 CALM      29.84R
SUNLIGHT       CLOUDY   N/A N/A N/A MISG      29.86R
WILKERSON PASS FAIR      12   7  79 NW10G22   29.74R WCI  -1
$$

COZ069>075-220900-
...SAN LUIS VALLEY/SANGRE DE CRISTO MOUNTAINS...

CITY           SKY/WX    TMP DP  RH WIND       PRES   REMARKS
ALAMOSA        FAIR       3   0  87 E3        29.79R FOG
LA VETA PASS   CLOUDY    18  16  93 NE23G31   29.73R WCI   0
SAGUACHE       FAIR      27  19  74 N15       29.78S WCI  15
$$

COZ035-036-038>040-220900-
...NORTHERN COLORADO FRONT RANGE...

CITY           SKY/WX    TMP DP  RH WIND       PRES   REMARKS
DENVER INTL AP FAIR      31  25  78 W7        29.72R WCI  24
DMNS CITY PARK   N/A     29  24  80 SE8       29.73R WCI  21
AURORA         MOCLDY    28  25  90 SW5       29.73R WCI  23
FRONT RANGE AP CLOUDY    32  28  86 W7        29.73R WCI  26
ERIE MUNI ARPT FAIR      27  25  93 CALM      29.73R
BOULDER MUN AP FAIR      32  23  69 CALM      29.72R
CENTENNIAL     FAIR      27  21  78 W5        29.72R WCI  22
BROOMFIELD     FAIR      34  27  75 NW5       29.73R WCI  30
FORT COLLINS   FAIR      30  25  80 CALM      29.73R
LONGMONT       FAIR      30  25  79 W5        29.74S WCI  26
$$

COZ041-046-047-076>085-087-088-220900-
...PIKES PEAK/PALMER DIVIDE AND SOUTHERN FOOTHILLS...

CITY           SKY/WX    TMP DP  RH WIND       PRES   REMARKS
COLO. SPRINGS  FAIR      32  19  58 NW9       29.72R WCI  24
A. F. ACADEMY  FAIR      23  17  77 N8        29.71R WCI  14
SCHRIEVER AFB  NOT AVBL
ELLICOTT       FAIR     N/A N/A N/A N5        29.69R
FALCON         FAIR      30  20  65 N14       29.71R WCI  19
FORT CARSON    NOT AVBL
LIMON          FAIR      25  24  96 CALM      29.70R
MONUMENT HILL  FAIR      23  21  93 W6        29.72S WCI  16
TRINIDAD       FAIR      25  20  81 W9        29.73R WCI  15
$$

COZ042>045-048>051-090-091-220900-
...NORTHEAST COLORADO...

CITY           SKY/WX    TMP DP  RH WIND       PRES   REMARKS
GREELEY ARPT   FAIR      28  26  92 CALM      29.73R
AKRON          CLOUDY    31  26  82 W10       29.69R WCI  22
BURLINGTON     FAIR      30  26  85 NW8       29.68R WCI  22
WRAY           NOT AVBL
STERLING       CLOUDY    32  28  86 CALM      29.69R
HOLYOKE        FAIR      34  30  86 W7        29.68R WCI  28
FORT MORGAN    CLOUDY    32  26  77 NW9       29.72R WCI  25
$$

COZ086-089-092>099-220900-
...SOUTHEAST COLORADO...

CITY           SKY/WX    TMP DP  RH WIND       PRES   REMARKS
PUEBLO         FAIR      29  26  89 W6        29.72R WCI  23
LA JUNTA       CLOUDY    31  27  85 NW8       29.70R WCI  23
LAMAR          FAIR      35  28  75 NW10      29.67R WCI  27
SPRINGFIELD      N/A     32  30  92 NW15      29.65R WCI  22
$$




USA.gov is the U.S. government's official web portal to all federal, state and local government web resources and services.